This demonstration page uses our WeatherBlox Daily Observations layout. Learn more.

Left ArrowRight Arrow

36.17497, -115.13722

Hourly Observations for February 15, 2021

Temp ( °F °C ) Dew Point ( °F °C ) Humidity (%) Winds ( mph kmh ) Pressure ( in mb ) Visibility ( mi km ) Precip ( " mm )
12:53 am 00:53 Clear 47 8.3 18 -7.8 31 31 SSE 3 6 29.96 1015 10 16 0.00 0.00
1:53 am 01:53 Clear 45 7.2 18 -7.8 34 34 Calm 29.98 1015 10 16 0.00 0.00
2:53 am 02:53 Clear 42 5.6 18 -7.8 38 38 W 3 6 29.96 1015 10 16 0.00 0.00
3:53 am 03:53 Partly Cloudy 44 6.7 19 -7.2 37 37 Calm 29.95 1014 10 16 0.00 0.00
4:53 am 04:53 Mostly Cloudy 45 7.2 20 -6.7 37 37 W 5 7 29.95 1014 10 16 0.00 0.00
5:53 am 05:53 Clear 43 6.1 20 -6.7 40 40 Calm 29.96 1015 10 16 0.00 0.00
6:53 am 06:53 Sunny 42 5.6 21 -6.1 43 43 Calm 29.98 1015 10 16 0.00 0.00
7:53 am 07:53 Sunny 46 7.8 21 -6.1 37 37 Calm 29.98 1015 10 16 0.00 0.00
8:53 am 08:53 Sunny 50 10 20 -6.7 30 30 Calm 29.98 1015 10 16 0.00 0.00
9:53 am 09:53 Sunny 52 11.1 19 -7.2 27 27 Calm 29.98 1015 10 16 0.00 0.00
10:53 am 10:53 Sunny 54 12.2 18 -7.8 24 24 Calm 29.97 1015 10 16 0.00 0.00
11:53 am 11:53 Sunny 55 12.8 19 -7.2 24 24 Calm 29.92 1013 10 16 0.00 0.00
12:53 pm 12:53 Sunny 58 14.4 20 -6.7 23 23 Calm 29.88 1012 10 16 0.00 0.00
1:53 pm 13:53 Sunny 60 15.6 22 -5.6 23 23 Calm 29.85 1011 10 16 0.00 0.00
2:53 pm 14:53 Sunny 62 16.7 23 -5 22 22 E 3 6 29.84 1010 10 16 0.00 0.00
3:53 pm 15:53 Sunny 62 16.7 23 -5 22 22 E 3 6 29.81 1010 10 16 0.00 0.00
4:53 pm 16:53 Sunny 62 16.7 24 -4.4 23 23 N 3 6 29.80 1009 10 16 0.00 0.00
5:53 pm 17:53 Clear 60 15.6 24 -4.4 25 25 ENE 3 6 29.78 1008 10 16 0.00 0.00
6:53 pm 18:53 Mostly Clear 60 15.6 21 -6.1 22 22 NE 5 7 29.78 1008 10 16 0.00 0.00
7:53 pm 19:53 Clear 57 13.9 23 -5 27 27 NNW 7 11 29.74 1007 10 16 0.00 0.00
8:53 pm 20:53 Clear 56 13.3 26 -3.3 32 32 WNW 7 11 29.72 1007 10 16 0.00 0.00
9:53 pm 21:53 Clear 55 12.8 26 -3.3 33 33 N 8 13 29.72 1007 10 16 0.00 0.00
10:53 pm 22:53 Mostly Cloudy 54 12.2 25 -3.9 33 33 NNW 7 11 29.75 1007 10 16 0.00 0.00
11:53 pm 23:53 Partly Cloudy 53 11.7 26 -3.3 35 35 NNW 7 11 29.74 1007 10 16 0.00 0.00

Powered by AerisWeather